Location: Unspecified
(0.0000°N, 0.0000°E)
Time: 20:30:26
(UTC+00:00)

Tiros 1 despin weight - Pass Details

Date: 30 May 2022
Orbit: 591 x 639 km, 48.2° (Epoch: 25 June)

Event Time Altitude Azimuth Distance (km) Brightness Sun altitude
Rises 01:10:54 0° 328° (NNW) 2,803 - -61.8°
Reaches altitude 10° 01:13:12 10° 333° (NNW) 1,907 - -61.5°
Maximum altitude 01:17:29 56° 51° (NE) 703 - -60.8°
Drops below altitude 10° 01:21:49 10° 130° (SE) 1,930 - -60.1°
Sets 01:24:09 0° 134° (SE) 2,841 - -59.7°
